Date_Time,Julian_Date,Latitude,Longitude,Instrument_Depth,U,V,Speed,Direction
(yyyy-mm-dd hh:mn:ss UTC),(JD),(+ deg. North),(+ deg. East),(m),(cm/s),(cm/s),(cm/s),(deg True)
1984-03-09 18:00:00 UTC,2445769.250000,29.6650,-93.4789,0037,23.48,4.99,24.0000,78.0000
1984-03-09 18:30:00 UTC,2445769.270833,29.6650,-93.4789,0037,22.72,3.60,23.0000,81.0000
1984-03-09 19:00:00 UTC,2445769.291667,29.6650,-93.4789,0037,21.92,1.92,22.0000,85.0000
1984-03-09 19:30:00 UTC,2445769.312500,29.6650,-93.4789,0037,21.00,0.00,21.0000,90.0000
1984-03-09 20:00:00 UTC,2445769.333333,29.6650,-93.4789,0037,19.89,-2.09,20.0000,96.0000
1984-03-09 20:30:00 UTC,2445769.354167,29.6650,-93.4789,0037,17.21,-5.26,18.0000,107.0000
1984-03-09 21:00:00 UTC,2445769.375000,29.6650,-93.4789,0037,14.09,-9.51,17.0000,124.0000
1984-03-09 21:30:00 UTC,2445769.395833,29.6650,-93.4789,0037,9.40,-12.94,16.0000,144.0000
1984-03-09 22:00:00 UTC,2445769.416667,29.6650,-93.4789,0037,4.94,-15.22,16.0000,162.0000
1984-03-09 22:30:00 UTC,2445769.437500,29.6650,-93.4789,0037,1.39,-15.94,16.0000,175.0000
1984-03-09 23:00:00 UTC,2445769.458333,29.6650,-93.4789,0037,-1.31,-14.94,15.0000,185.0000
1984-03-09 23:30:00 UTC,2445769.479167,29.6650,-93.4789,0037,-3.12,-14.67,15.0000,192.0000
1984-03-10 00:00:00 UTC,2445769.500000,29.6650,-93.4789,0037,-4.64,-14.27,15.0000,198.0000
1984-03-10 00:30:00 UTC,2445769.520833,29.6650,-93.4789,0037,-5.38,-14.00,15.0000,201.0000
1984-03-10 01:00:00 UTC,2445769.541667,29.6650,-93.4789,0037,-4.56,-13.24,14.0000,199.0000
1984-03-10 01:30:00 UTC,2445769.562500,29.6650,-93.4789,0037,-3.86,-13.46,14.0000,196.0000
1984-03-10 02:00:00 UTC,2445769.583333,29.6650,-93.4789,0037,-4.02,-12.36,13.0000,198.0000
1984-03-10 02:30:00 UTC,2445769.604167,29.6650,-93.4789,0037,-4.30,-10.13,11.0000,203.0000
1984-03-10 03:00:00 UTC,2445769.625000,29.6650,-93.4789,0037,-4.77,-7.63,9.0000,212.0000
1984-03-10 03:30:00 UTC,2445769.645833,29.6650,-93.4789,0037,-4.81,-6.39,8.0000,217.0000
1984-03-10 04:00:00 UTC,2445769.666667,29.6650,-93.4789,0037,-3.81,-5.87,7.0000,213.0000
1984-03-10 04:30:00 UTC,2445769.687500,29.6650,-93.4789,0037,-2.54,-5.44,6.0000,205.0000
1984-03-10 05:00:00 UTC,2445769.708333,29.6650,-93.4789,0037,-1.87,-4.64,5.0000,202.0000
1984-03-10 05:30:00 UTC,2445769.729167,29.6650,-93.4789,0037,-1.75,-3.60,4.0000,206.0000
1984-03-10 06:00:00 UTC,2445769.750000,29.6650,-93.4789,0037,-1.94,-3.50,4.0000,209.0000
1984-03-10 06:30:00 UTC,2445769.770833,29.6650,-93.4789,0037,-2.41,-3.19,4.0000,217.0000
1984-03-10 07:00:00 UTC,2445769.791667,29.6650,-93.4789,0037,-4.19,-2.72,5.0000,237.0000
1984-03-10 07:30:00 UTC,2445769.812500,29.6650,-93.4789,0037,-5.60,-2.15,6.0000,249.0000
1984-03-10 08:00:00 UTC,2445769.833333,29.6650,-93.4789,0037,-6.73,-1.93,7.0000,254.0000
1984-03-10 08:30:00 UTC,2445769.854167,29.6650,-93.4789,0037,-7.94,-0.97,8.0000,263.0000
1984-03-10 09:00:00 UTC,2445769.875000,29.6650,-93.4789,0037,-7.98,0.56,8.0000,274.0000
1984-03-10 09:30:00 UTC,2445769.895833,29.6650,-93.4789,0037,-8.73,2.18,9.0000,284.0000
1984-03-10 10:00:00 UTC,2445769.916667,29.6650,-93.4789,0037,-7.56,2.60,8.0000,289.0000
1984-03-10 10:30:00 UTC,2445769.937500,29.6650,-93.4789,0037,-7.52,2.74,8.0000,290.0000
1984-03-10 11:00:00 UTC,2445769.958333,29.6650,-93.4789,0037,-8.22,3.66,9.0000,294.0000
1984-03-10 11:30:00 UTC,2445769.979167,29.6650,-93.4789,0037,-7.95,4.23,9.0000,298.0000
1984-03-10 12:00:00 UTC,2445770.000000,29.6650,-93.4789,0037,-8.09,3.95,9.0000,296.0000
1984-03-10 12:30:00 UTC,2445770.020833,29.6650,-93.4789,0037,-9.34,3.58,10.0000,291.0000
1984-03-10 13:00:00 UTC,2445770.041667,29.6650,-93.4789,0037,-9.51,3.09,10.0000,288.0000
1984-03-10 13:30:00 UTC,2445770.062500,29.6650,-93.4789,0037,-10.46,3.40,11.0000,288.0000
1984-03-10 14:00:00 UTC,2445770.083333,29.6650,-93.4789,0037,-11.28,4.10,12.0000,290.0000
1984-03-10 14:30:00 UTC,2445770.104167,29.6650,-93.4789,0037,-11.41,3.71,12.0000,288.0000
1984-03-10 15:00:00 UTC,2445770.125000,29.6650,-93.4789,0037,-11.69,2.70,12.0000,283.0000
1984-03-10 15:30:00 UTC,2445770.145833,29.6650,-93.4789,0037,-12.76,2.48,13.0000,281.0000
1984-03-10 16:00:00 UTC,2445770.166667,29.6650,-93.4789,0037,-13.74,2.67,14.0000,281.0000
1984-03-10 16:30:00 UTC,2445770.187500,29.6650,-93.4789,0037,-13.83,2.19,14.0000,279.0000
1984-03-10 17:00:00 UTC,2445770.208333,29.6650,-93.4789,0037,-13.79,2.43,14.0000,280.0000
1984-03-10 17:30:00 UTC,2445770.229167,29.6650,-93.4789,0037,-12.72,2.70,13.0000,282.0000
1984-03-10 18:00:00 UTC,2445770.250000,29.6650,-93.4789,0037,-11.74,2.49,12.0000,282.0000
1984-03-10 18:30:00 UTC,2445770.270833,29.6650,-93.4789,0037,-10.67,2.66,11.0000,284.0000
1984-03-10 19:00:00 UTC,2445770.291667,29.6650,-93.4789,0037,-9.56,2.92,10.0000,287.0000
1984-03-10 19:30:00 UTC,2445770.312500,29.6650,-93.4789,0037,-8.73,2.18,9.0000,284.0000
1984-03-10 20:00:00 UTC,2445770.333333,29.6650,-93.4789,0037,-7.94,0.97,8.0000,277.0000
1984-03-10 20:30:00 UTC,2445770.354167,29.6650,-93.4789,0037,-6.99,-0.37,7.0000,267.0000
1984-03-10 21:00:00 UTC,2445770.375000,29.6650,-93.4789,0037,-6.89,-1.22,7.0000,260.0000
1984-03-10 21:30:00 UTC,2445770.395833,29.6650,-93.4789,0037,-7.94,-0.97,8.0000,263.0000
1984-03-10 22:00:00 UTC,2445770.416667,29.6650,-93.4789,0037,-10.00,-0.00,10.0000,270.0000
1984-03-10 22:30:00 UTC,2445770.437500,29.6650,-93.4789,0037,-12.00,-0.00,12.0000,270.0000
1984-03-10 23:00:00 UTC,2445770.458333,29.6650,-93.4789,0037,-13.95,-1.22,14.0000,265.0000
1984-03-10 23:30:00 UTC,2445770.479167,29.6650,-93.4789,0037,-16.00,-0.00,16.0000,270.0000
1984-03-11 00:00:00 UTC,2445770.500000,29.6650,-93.4789,0037,-18.58,3.95,19.0000,282.0000
1984-03-11 00:30:00 UTC,2445770.520833,29.6650,-93.4789,0037,-20.38,5.08,21.0000,284.0000
1984-03-11 01:00:00 UTC,2445770.541667,29.6650,-93.4789,0037,-20.84,2.56,21.0000,277.0000
1984-03-11 01:30:00 UTC,2445770.562500,29.6650,-93.4789,0037,-19.75,3.13,20.0000,279.0000
1984-03-11 02:00:00 UTC,2445770.583333,29.6650,-93.4789,0037,-17.85,6.50,19.0000,290.0000
1984-03-11 02:30:00 UTC,2445770.604167,29.6650,-93.4789,0037,-15.65,6.64,17.0000,293.0000
1984-03-11 03:00:00 UTC,2445770.625000,29.6650,-93.4789,0037,-15.22,4.94,16.0000,288.0000
1984-03-11 03:30:00 UTC,2445770.645833,29.6650,-93.4789,0037,-15.87,6.09,17.0000,291.0000
1984-03-11 04:00:00 UTC,2445770.666667,29.6650,-93.4789,0037,-19.18,8.54,21.0000,294.0000
1984-03-11 04:30:00 UTC,2445770.687500,29.6650,-93.4789,0037,-19.77,9.64,22.0000,296.0000
1984-03-11 05:00:00 UTC,2445770.708333,29.6650,-93.4789,0037,-17.82,9.08,20.0000,297.0000
1984-03-11 05:30:00 UTC,2445770.729167,29.6650,-93.4789,0037,-15.65,6.64,17.0000,293.0000
1984-03-11 06:00:00 UTC,2445770.750000,29.6650,-93.4789,0037,-16.26,4.97,17.0000,287.0000
1984-03-11 06:30:00 UTC,2445770.770833,29.6650,-93.4789,0037,-16.56,3.82,17.0000,283.0000
1984-03-11 07:00:00 UTC,2445770.791667,29.6650,-93.4789,0037,-16.79,2.66,17.0000,279.0000
1984-03-11 07:30:00 UTC,2445770.812500,29.6650,-93.4789,0037,-15.80,2.50,16.0000,279.0000
1984-03-11 08:00:00 UTC,2445770.833333,29.6650,-93.4789,0037,-15.59,3.60,16.0000,283.0000
1984-03-11 08:30:00 UTC,2445770.854167,29.6650,-93.4789,0037,-14.34,4.39,15.0000,287.0000
1984-03-11 09:00:00 UTC,2445770.875000,29.6650,-93.4789,0037,-11.97,5.08,13.0000,293.0000
1984-03-11 09:30:00 UTC,2445770.895833,29.6650,-93.4789,0037,-11.02,6.89,13.0000,302.0000
1984-03-11 10:00:00 UTC,2445770.916667,29.6650,-93.4789,0037,-11.03,8.62,14.0000,308.0000
1984-03-11 10:30:00 UTC,2445770.937500,29.6650,-93.4789,0037,-9.96,8.36,13.0000,310.0000
1984-03-11 11:00:00 UTC,2445770.958333,29.6650,-93.4789,0037,-9.96,8.36,13.0000,310.0000
1984-03-11 11:30:00 UTC,2445770.979167,29.6650,-93.4789,0037,-10.52,7.64,13.0000,306.0000
1984-03-11 12:00:00 UTC,2445771.000000,29.6650,-93.4789,0037,-13.24,7.04,15.0000,298.0000
1984-03-11 12:30:00 UTC,2445771.020833,29.6650,-93.4789,0037,-17.49,7.42,19.0000,293.0000
1984-03-11 13:00:00 UTC,2445771.041667,29.6650,-93.4789,0037,-22.55,8.21,24.0000,290.0000
1984-03-11 13:30:00 UTC,2445771.062500,29.6650,-93.4789,0037,-24.26,6.05,25.0000,284.0000
1984-03-11 14:00:00 UTC,2445771.083333,29.6650,-93.4789,0037,-24.69,3.91,25.0000,279.0000
1984-03-11 14:30:00 UTC,2445771.104167,29.6650,-93.4789,0037,-22.72,3.60,23.0000,279.0000
1984-03-11 15:00:00 UTC,2445771.125000,29.6650,-93.4789,0037,-17.61,3.74,18.0000,282.0000
1984-03-11 15:30:00 UTC,2445771.145833,29.6650,-93.4789,0037,-13.74,2.67,14.0000,281.0000
1984-03-11 16:00:00 UTC,2445771.166667,29.6650,-93.4789,0037,-14.82,2.35,15.0000,279.0000
1984-03-11 16:30:00 UTC,2445771.187500,29.6650,-93.4789,0037,-14.92,1.57,15.0000,276.0000
1984-03-11 17:00:00 UTC,2445771.208333,29.6650,-93.4789,0037,-11.99,-0.42,12.0000,268.0000
1984-03-11 17:30:00 UTC,2445771.229167,29.6650,-93.4789,0037,-9.70,-2.42,10.0000,256.0000
1984-03-11 18:00:00 UTC,2445771.250000,29.6650,-93.4789,0037,-9.06,-4.23,10.0000,245.0000
1984-03-11 18:30:00 UTC,2445771.270833,29.6650,-93.4789,0037,-8.57,-5.15,10.0000,239.0000
1984-03-11 19:00:00 UTC,2445771.291667,29.6650,-93.4789,0037,-7.95,-4.23,9.0000,242.0000
1984-03-11 19:30:00 UTC,2445771.312500,29.6650,-93.4789,0037,-8.40,-3.23,9.0000,249.0000
1984-03-11 20:00:00 UTC,2445771.333333,29.6650,-93.4789,0037,-9.46,-3.26,10.0000,251.0000
1984-03-11 20:30:00 UTC,2445771.354167,29.6650,-93.4789,0037,-11.28,-4.10,12.0000,250.0000
1984-03-11 21:00:00 UTC,2445771.375000,29.6650,-93.4789,0037,-12.22,-4.45,13.0000,250.0000
1984-03-11 21:30:00 UTC,2445771.395833,29.6650,-93.4789,0037,-12.36,-4.02,13.0000,252.0000
1984-03-11 22:00:00 UTC,2445771.416667,29.6650,-93.4789,0037,-11.74,-2.49,12.0000,258.0000
1984-03-11 22:30:00 UTC,2445771.437500,29.6650,-93.4789,0037,-14.98,-0.79,15.0000,267.0000
1984-03-11 23:00:00 UTC,2445771.458333,29.6650,-93.4789,0037,-18.95,1.33,19.0000,274.0000
1984-03-11 23:30:00 UTC,2445771.479167,29.6650,-93.4789,0037,-21.79,3.06,22.0000,278.0000
1984-03-12 00:00:00 UTC,2445771.500000,29.6650,-93.4789,0037,-22.72,3.60,23.0000,279.0000
1984-03-12 00:30:00 UTC,2445771.520833,29.6650,-93.4789,0037,-23.64,4.17,24.0000,280.0000
1984-03-12 01:00:00 UTC,2445771.541667,29.6650,-93.4789,0037,-24.45,5.20,25.0000,282.0000
1984-03-12 01:30:00 UTC,2445771.562500,29.6650,-93.4789,0037,-25.95,7.44,27.0000,286.0000
1984-03-12 02:00:00 UTC,2445771.583333,29.6650,-93.4789,0037,-26.63,8.65,28.0000,288.0000
1984-03-12 02:30:00 UTC,2445771.604167,29.6650,-93.4789,0037,-25.53,8.79,27.0000,289.0000
1984-03-12 03:00:00 UTC,2445771.625000,29.6650,-93.4789,0037,-25.68,8.34,27.0000,288.0000
1984-03-12 03:30:00 UTC,2445771.645833,29.6650,-93.4789,0037,-26.08,6.99,27.0000,285.0000
1984-03-12 04:00:00 UTC,2445771.666667,29.6650,-93.4789,0037,-27.39,5.82,28.0000,282.0000
1984-03-12 04:30:00 UTC,2445771.687500,29.6650,-93.4789,0037,-28.47,5.53,29.0000,281.0000
1984-03-12 05:00:00 UTC,2445771.708333,29.6650,-93.4789,0037,-27.66,4.38,28.0000,279.0000
1984-03-12 05:30:00 UTC,2445771.729167,29.6650,-93.4789,0037,-26.93,1.88,27.0000,274.0000
1984-03-12 06:00:00 UTC,2445771.750000,29.6650,-93.4789,0037,-27.98,0.98,28.0000,272.0000
1984-03-12 06:30:00 UTC,2445771.770833,29.6650,-93.4789,0037,-27.96,1.47,28.0000,273.0000
1984-03-12 07:00:00 UTC,2445771.791667,29.6650,-93.4789,0037,-26.00,0.45,26.0000,271.0000
1984-03-12 07:30:00 UTC,2445771.812500,29.6650,-93.4789,0037,-25.00,-0.00,25.0000,270.0000
1984-03-12 08:00:00 UTC,2445771.833333,29.6650,-93.4789,0037,-23.94,1.67,24.0000,274.0000
1984-03-12 08:30:00 UTC,2445771.854167,29.6650,-93.4789,0037,-21.79,3.06,22.0000,278.0000
1984-03-12 09:00:00 UTC,2445771.875000,29.6650,-93.4789,0037,-18.82,2.64,19.0000,278.0000
1984-03-12 09:30:00 UTC,2445771.895833,29.6650,-93.4789,0037,-17.87,2.19,18.0000,277.0000
1984-03-12 10:00:00 UTC,2445771.916667,29.6650,-93.4789,0037,-17.73,3.13,18.0000,280.0000
1984-03-12 10:30:00 UTC,2445771.937500,29.6650,-93.4789,0037,-18.35,4.92,19.0000,285.0000
1984-03-12 11:00:00 UTC,2445771.958333,29.6650,-93.4789,0037,-19.32,5.18,20.0000,285.0000
1984-03-12 11:30:00 UTC,2445771.979167,29.6650,-93.4789,0037,-20.54,4.37,21.0000,282.0000
1984-03-12 12:00:00 UTC,2445772.000000,29.6650,-93.4789,0037,-21.60,4.20,22.0000,281.0000
1984-03-12 12:30:00 UTC,2445772.020833,29.6650,-93.4789,0037,-23.29,5.81,24.0000,284.0000
1984-03-12 13:00:00 UTC,2445772.041667,29.6650,-93.4789,0037,-23.91,7.31,25.0000,287.0000
1984-03-12 13:30:00 UTC,2445772.062500,29.6650,-93.4789,0037,-25.11,6.73,26.0000,285.0000
1984-03-12 14:00:00 UTC,2445772.083333,29.6650,-93.4789,0037,-26.41,5.61,27.0000,282.0000
1984-03-12 14:30:00 UTC,2445772.104167,29.6650,-93.4789,0037,-30.08,7.50,31.0000,284.0000
1984-03-12 15:00:00 UTC,2445772.125000,29.6650,-93.4789,0037,-31.38,10.20,33.0000,288.0000
1984-03-12 15:30:00 UTC,2445772.145833,29.6650,-93.4789,0037,-32.89,11.97,35.0000,290.0000
1984-03-12 16:00:00 UTC,2445772.166667,29.6650,-93.4789,0037,-31.95,11.63,34.0000,290.0000
1984-03-12 16:30:00 UTC,2445772.187500,29.6650,-93.4789,0037,-31.20,10.74,33.0000,289.0000
1984-03-12 17:00:00 UTC,2445772.208333,29.6650,-93.4789,0037,-28.94,11.11,31.0000,291.0000
1984-03-12 17:30:00 UTC,2445772.229167,29.6650,-93.4789,0037,-27.58,8.96,29.0000,288.0000
1984-03-12 18:00:00 UTC,2445772.250000,29.6650,-93.4789,0037,-28.78,3.53,29.0000,277.0000
1984-03-12 18:30:00 UTC,2445772.270833,29.6650,-93.4789,0037,-31.88,2.79,32.0000,275.0000
1984-03-12 19:00:00 UTC,2445772.291667,29.6650,-93.4789,0037,-31.51,5.56,32.0000,280.0000
1984-03-12 19:30:00 UTC,2445772.312500,29.6650,-93.4789,0037,-30.21,6.97,31.0000,283.0000
1984-03-12 20:00:00 UTC,2445772.333333,29.6650,-93.4789,0037,-29.78,3.66,30.0000,277.0000
1984-03-12 20:30:00 UTC,2445772.354167,29.6650,-93.4789,0037,-27.93,1.95,28.0000,274.0000
1984-03-12 21:00:00 UTC,2445772.375000,29.6650,-93.4789,0037,-26.31,6.07,27.0000,283.0000
1984-03-12 21:30:00 UTC,2445772.395833,29.6650,-93.4789,0037,-24.15,6.47,25.0000,285.0000
1984-03-12 22:00:00 UTC,2445772.416667,29.6650,-93.4789,0037,-25.43,5.41,26.0000,282.0000
1984-03-12 22:30:00 UTC,2445772.437500,29.6650,-93.4789,0037,-25.68,8.34,27.0000,288.0000
1984-03-12 23:00:00 UTC,2445772.458333,29.6650,-93.4789,0037,-22.28,11.35,25.0000,297.0000
1984-03-12 23:30:00 UTC,2445772.479167,29.6650,-93.4789,0037,-16.29,9.79,19.0000,301.0000
1984-03-13 00:00:00 UTC,2445772.500000,29.6650,-93.4789,0037,-12.99,7.50,15.0000,300.0000
1984-03-13 00:30:00 UTC,2445772.520833,29.6650,-93.4789,0037,-13.81,5.86,15.0000,293.0000
1984-03-13 01:00:00 UTC,2445772.541667,29.6650,-93.4789,0037,-17.54,4.05,18.0000,283.0000
1984-03-13 01:30:00 UTC,2445772.562500,29.6650,-93.4789,0037,-21.67,3.82,22.0000,280.0000
1984-03-13 02:00:00 UTC,2445772.583333,29.6650,-93.4789,0037,-20.88,2.20,21.0000,276.0000
1984-03-13 02:30:00 UTC,2445772.604167,29.6650,-93.4789,0037,-20.00,-0.00,20.0000,270.0000
1984-03-13 03:00:00 UTC,2445772.625000,29.6650,-93.4789,0037,-22.00,-0.38,22.0000,269.0000
1984-03-13 03:30:00 UTC,2445772.645833,29.6650,-93.4789,0037,-26.00,-0.00,26.0000,270.0000
1984-03-13 04:00:00 UTC,2445772.666667,29.6650,-93.4789,0037,-29.00,-0.00,29.0000,270.0000
1984-03-13 04:30:00 UTC,2445772.687500,29.6650,-93.4789,0037,-29.84,-3.14,30.0000,264.0000
1984-03-13 05:00:00 UTC,2445772.708333,29.6650,-93.4789,0037,-28.84,-8.27,30.0000,254.0000
1984-03-13 05:30:00 UTC,2445772.729167,29.6650,-93.4789,0037,-25.96,-10.49,28.0000,248.0000
1984-03-13 06:00:00 UTC,2445772.750000,29.6650,-93.4789,0037,-23.18,-9.37,25.0000,248.0000
1984-03-13 06:30:00 UTC,2445772.770833,29.6650,-93.4789,0037,-20.10,-8.95,22.0000,246.0000
1984-03-13 07:00:00 UTC,2445772.791667,29.6650,-93.4789,0037,-18.37,-10.18,21.0000,241.0000
1984-03-13 07:30:00 UTC,2445772.812500,29.6650,-93.4789,0037,-16.96,-10.60,20.0000,238.0000
1984-03-13 08:00:00 UTC,2445772.833333,29.6650,-93.4789,0037,-15.75,-10.62,19.0000,236.0000
1984-03-13 08:30:00 UTC,2445772.854167,29.6650,-93.4789,0037,-14.18,-11.08,18.0000,232.0000
1984-03-13 09:00:00 UTC,2445772.875000,29.6650,-93.4789,0037,-12.43,-11.59,17.0000,227.0000
1984-03-13 09:30:00 UTC,2445772.895833,29.6650,-93.4789,0037,-12.43,-10.07,16.0000,231.0000
1984-03-13 10:00:00 UTC,2445772.916667,29.6650,-93.4789,0037,-15.28,-7.45,17.0000,244.0000
1984-03-13 10:30:00 UTC,2445772.937500,29.6650,-93.4789,0037,-18.65,-3.63,19.0000,259.0000
1984-03-13 11:00:00 UTC,2445772.958333,29.6650,-93.4789,0037,-17.90,1.88,18.0000,276.0000
1984-03-13 11:30:00 UTC,2445772.979167,29.6650,-93.4789,0037,-12.79,5.69,14.0000,294.0000
1984-03-13 12:00:00 UTC,2445773.000000,29.6650,-93.4789,0037,-8.55,6.92,11.0000,309.0000
1984-03-13 12:30:00 UTC,2445773.020833,29.6650,-93.4789,0037,-8.04,7.50,11.0000,313.0000
1984-03-13 13:00:00 UTC,2445773.041667,29.6650,-93.4789,0037,-8.43,7.07,11.0000,310.0000
1984-03-13 13:30:00 UTC,2445773.062500,29.6650,-93.4789,0037,-8.30,7.22,11.0000,311.0000
1984-03-13 14:00:00 UTC,2445773.083333,29.6650,-93.4789,0037,-6.82,7.31,10.0000,317.0000
1984-03-13 14:30:00 UTC,2445773.104167,29.6650,-93.4789,0037,-6.16,7.88,10.0000,322.0000
1984-03-13 15:00:00 UTC,2445773.125000,29.6650,-93.4789,0037,-6.02,7.99,10.0000,323.0000
1984-03-13 15:30:00 UTC,2445773.145833,29.6650,-93.4789,0037,-5.83,9.33,11.0000,328.0000
1984-03-13 16:00:00 UTC,2445773.166667,29.6650,-93.4789,0037,-4.10,11.28,12.0000,340.0000
1984-03-13 16:30:00 UTC,2445773.187500,29.6650,-93.4789,0037,-0.38,10.99,11.0000,358.0000
1984-03-13 17:00:00 UTC,2445773.208333,29.6650,-93.4789,0037,2.10,10.80,11.0000,11.0000
1984-03-13 17:30:00 UTC,2445773.229167,29.6650,-93.4789,0037,1.91,9.82,10.0000,11.0000
1984-03-13 18:00:00 UTC,2445773.250000,29.6650,-93.4789,0037,1.56,8.86,9.0000,10.0000
1984-03-13 18:30:00 UTC,2445773.270833,29.6650,-93.4789,0037,2.07,7.73,8.0000,15.0000
1984-03-13 19:00:00 UTC,2445773.291667,29.6650,-93.4789,0037,2.96,6.34,7.0000,25.0000
1984-03-13 19:30:00 UTC,2445773.312500,29.6650,-93.4789,0037,3.44,4.91,6.0000,35.0000
1984-03-13 20:00:00 UTC,2445773.333333,29.6650,-93.4789,0037,3.94,4.53,6.0000,41.0000
1984-03-13 20:30:00 UTC,2445773.354167,29.6650,-93.4789,0037,4.39,4.09,6.0000,47.0000
1984-03-13 21:00:00 UTC,2445773.375000,29.6650,-93.4789,0037,3.53,1.88,4.0000,62.0000
1984-03-13 21:30:00 UTC,2445773.395833,29.6650,-93.4789,0037,2.80,-1.08,3.0000,111.0000
1984-03-13 22:00:00 UTC,2445773.416667,29.6650,-93.4789,0037,0.26,-4.99,5.0000,177.0000
1984-03-13 22:30:00 UTC,2445773.437500,29.6650,-93.4789,0037,-3.09,-9.51,10.0000,198.0000
1984-03-13 23:00:00 UTC,2445773.458333,29.6650,-93.4789,0037,-7.95,-12.72,15.0000,212.0000
1984-03-13 23:30:00 UTC,2445773.479167,29.6650,-93.4789,0037,-13.16,-12.28,18.0000,227.0000
1984-03-14 00:00:00 UTC,2445773.500000,29.6650,-93.4789,0037,-16.78,-8.92,19.0000,242.0000
1984-03-14 00:30:00 UTC,2445773.520833,29.6650,-93.4789,0037,-19.13,-5.85,20.0000,253.0000
1984-03-14 01:00:00 UTC,2445773.541667,29.6650,-93.4789,0037,-18.77,-2.97,19.0000,261.0000
1984-03-14 01:30:00 UTC,2445773.562500,29.6650,-93.4789,0037,-17.90,-1.88,18.0000,264.0000
1984-03-14 02:00:00 UTC,2445773.583333,29.6650,-93.4789,0037,-16.79,-2.66,17.0000,261.0000
1984-03-14 02:30:00 UTC,2445773.604167,29.6650,-93.4789,0037,-15.65,-3.33,16.0000,258.0000
1984-03-14 03:00:00 UTC,2445773.625000,29.6650,-93.4789,0037,-16.74,-2.95,17.0000,260.0000
1984-03-14 03:30:00 UTC,2445773.645833,29.6650,-93.4789,0037,-18.95,-1.33,19.0000,266.0000
1984-03-14 04:00:00 UTC,2445773.666667,29.6650,-93.4789,0037,-19.99,0.70,20.0000,272.0000
1984-03-14 04:30:00 UTC,2445773.687500,29.6650,-93.4789,0037,-19.75,3.13,20.0000,279.0000
1984-03-14 05:00:00 UTC,2445773.708333,29.6650,-93.4789,0037,-19.56,4.16,20.0000,282.0000
1984-03-14 05:30:00 UTC,2445773.729167,29.6650,-93.4789,0037,-18.44,4.60,19.0000,284.0000
1984-03-14 06:00:00 UTC,2445773.750000,29.6650,-93.4789,0037,-19.13,5.85,20.0000,287.0000
1984-03-14 06:30:00 UTC,2445773.770833,29.6650,-93.4789,0037,-19.23,5.51,20.0000,286.0000
1984-03-14 07:00:00 UTC,2445773.791667,29.6650,-93.4789,0037,-18.44,4.60,19.0000,284.0000
1984-03-14 07:30:00 UTC,2445773.812500,29.6650,-93.4789,0037,-16.63,3.53,17.0000,282.0000
1984-03-14 08:00:00 UTC,2445773.833333,29.6650,-93.4789,0037,-15.84,2.23,16.0000,278.0000
1984-03-14 08:30:00 UTC,2445773.854167,29.6650,-93.4789,0037,-13.98,0.73,14.0000,273.0000
1984-03-14 09:00:00 UTC,2445773.875000,29.6650,-93.4789,0037,-12.98,-0.68,13.0000,267.0000
1984-03-14 09:30:00 UTC,2445773.895833,29.6650,-93.4789,0037,-14.89,-1.83,15.0000,263.0000
1984-03-14 10:00:00 UTC,2445773.916667,29.6650,-93.4789,0037,-17.93,-1.57,18.0000,265.0000
1984-03-14 10:30:00 UTC,2445773.937500,29.6650,-93.4789,0037,-22.00,-0.38,22.0000,269.0000
1984-03-14 11:00:00 UTC,2445773.958333,29.6650,-93.4789,0037,-25.98,0.91,26.0000,272.0000
1984-03-14 11:30:00 UTC,2445773.979167,29.6650,-93.4789,0037,-25.86,2.72,26.0000,276.0000
1984-03-14 12:00:00 UTC,2445774.000000,29.6650,-93.4789,0037,-24.26,6.05,25.0000,284.0000
1984-03-14 12:30:00 UTC,2445774.020833,29.6650,-93.4789,0037,-23.34,8.96,25.0000,291.0000
1984-03-14 13:00:00 UTC,2445774.041667,29.6650,-93.4789,0037,-25.21,9.68,27.0000,291.0000
1984-03-14 13:30:00 UTC,2445774.062500,29.6650,-93.4789,0037,-26.47,9.12,28.0000,289.0000
1984-03-14 14:00:00 UTC,2445774.083333,29.6650,-93.4789,0037,-26.31,9.58,28.0000,290.0000
1984-03-14 14:30:00 UTC,2445774.104167,29.6650,-93.4789,0037,-24.47,11.41,27.0000,295.0000
1984-03-14 15:00:00 UTC,2445774.125000,29.6650,-93.4789,0037,-23.38,13.50,27.0000,300.0000
1984-03-14 15:30:00 UTC,2445774.145833,29.6650,-93.4789,0037,-22.12,15.49,27.0000,305.0000
1984-03-14 16:00:00 UTC,2445774.166667,29.6650,-93.4789,0037,-19.70,15.39,25.0000,308.0000
1984-03-14 16:30:00 UTC,2445774.187500,29.6650,-93.4789,0037,-18.37,13.84,23.0000,307.0000
1984-03-14 17:00:00 UTC,2445774.208333,29.6650,-93.4789,0037,-18.65,15.10,24.0000,309.0000
1984-03-14 17:30:00 UTC,2445774.229167,29.6650,-93.4789,0037,-18.39,15.43,24.0000,310.0000
1984-03-14 18:00:00 UTC,2445774.250000,29.6650,-93.4789,0037,-18.91,14.78,24.0000,308.0000
1984-03-14 18:30:00 UTC,2445774.270833,29.6650,-93.4789,0037,-19.66,13.77,24.0000,305.0000
1984-03-14 19:00:00 UTC,2445774.291667,29.6650,-93.4789,0037,-19.60,9.99,22.0000,297.0000
1984-03-14 19:30:00 UTC,2445774.312500,29.6650,-93.4789,0037,-19.32,5.18,20.0000,285.0000
1984-03-14 20:00:00 UTC,2445774.333333,29.6650,-93.4789,0037,-17.82,2.51,18.0000,278.0000
1984-03-14 20:30:00 UTC,2445774.354167,29.6650,-93.4789,0037,-14.98,0.78,15.0000,273.0000
1984-03-14 21:00:00 UTC,2445774.375000,29.6650,-93.4789,0037,-12.97,-0.91,13.0000,266.0000
1984-03-14 21:30:00 UTC,2445774.395833,29.6650,-93.4789,0037,-11.91,-1.46,12.0000,263.0000
1984-03-14 22:00:00 UTC,2445774.416667,29.6650,-93.4789,0037,-11.85,-1.88,12.0000,261.0000
1984-03-14 22:30:00 UTC,2445774.437500,29.6650,-93.4789,0037,-11.78,-2.29,12.0000,259.0000
1984-03-14 23:00:00 UTC,2445774.458333,29.6650,-93.4789,0037,-11.48,-3.51,12.0000,253.0000
1984-03-14 23:30:00 UTC,2445774.479167,29.6650,-93.4789,0037,-10.88,-5.07,12.0000,245.0000
1984-03-15 00:00:00 UTC,2445774.500000,29.6650,-93.4789,0037,-9.71,-5.16,11.0000,242.0000
1984-03-15 00:30:00 UTC,2445774.520833,29.6650,-93.4789,0037,-10.88,-5.07,12.0000,245.0000
1984-03-15 01:00:00 UTC,2445774.541667,29.6650,-93.4789,0037,-12.22,-4.45,13.0000,250.0000
1984-03-15 01:30:00 UTC,2445774.562500,29.6650,-93.4789,0037,-13.64,-3.15,14.0000,257.0000
1984-03-15 02:00:00 UTC,2445774.583333,29.6650,-93.4789,0037,-14.92,-1.57,15.0000,264.0000
1984-03-15 02:30:00 UTC,2445774.604167,29.6650,-93.4789,0037,-16.00,-0.00,16.0000,270.0000
1984-03-15 03:00:00 UTC,2445774.625000,29.6650,-93.4789,0037,-16.99,0.59,17.0000,272.0000
1984-03-15 03:30:00 UTC,2445774.645833,29.6650,-93.4789,0037,-17.96,1.26,18.0000,274.0000
1984-03-15 04:00:00 UTC,2445774.666667,29.6650,-93.4789,0037,-19.89,2.09,20.0000,276.0000
1984-03-15 04:30:00 UTC,2445774.687500,29.6650,-93.4789,0037,-20.88,2.20,21.0000,276.0000
1984-03-15 05:00:00 UTC,2445774.708333,29.6650,-93.4789,0037,-20.74,3.29,21.0000,279.0000
1984-03-15 05:30:00 UTC,2445774.729167,29.6650,-93.4789,0037,-21.52,4.57,22.0000,282.0000